Location: Newark
(58.9986°N, 38.5006°E)
Time: 11:25:37
(UTC+00:00)

N. Korean satellite - Pass Details

Date: 14 December 2019
Orbit: 454 x 507 km, 97.2° (Epoch: 25 January)

Event Time Altitude Azimuth Distance (km) Brightness Sun altitude
Rises 04:47:19 0° 9° (N) 2,564 10.0 -9.3°
Reaches altitude 10° 04:49:39 10° 355° (N) 1,668 8.9 -9.1°
Maximum altitude 04:52:34 24° 301° (WNW) 1,033 7.6 -8.8°
Drops below altitude 10° 04:55:26 10° 246° (WSW) 1,634 8.9 -8.4°
Sets 04:57:42 0° 232° (SW) 2,497 10.0 -8.2°
